Location: Chasse
(44.1833°N, 6.5833°E)
Time: 01:28:26
(UTC+00:00)

Daily predictions for brighter satellites

Satellite Brightness Start Highest point End
(mag) Time Altitude Azimuth Time Altitude Azimuth Time Altitude Azimuth
USA 59 Rocket 2.7 03:34:44 16° E 03:34:44 16° E 03:36:07 10° E
BREEZE-M DEB (TANK) 4.3 03:44:05 81° SE 03:44:05 81° SE 03:48:14 10° ESE
SL-16 R/B 4.4 03:46:48 15° NNE 03:49:22 20° NE 03:53:27 10° E
Cosmos 2082 Rocket 2.9 03:49:32 48° SE 03:50:02 50° ESE 03:55:26 10° NE
COSMOS 2455 3.5 03:58:10 45° NNE 03:59:15 50° NE 04:05:05 10° SE
Cosmos 1980 Rocket 2.4 04:14:14 58° S 04:14:14 58° S 04:18:43 10° SSE
Cosmos 2279 Rocket 4.0 04:14:28 65° SW 04:14:28 65° SW 04:19:55 10° S
Cosmos 2098 Rocket 3.6 04:15:58 76° SSW 04:15:58 76° SSW 04:21:20 10° S
Cosmos 2369 3.9 04:16:16 50° N 04:17:37 68° ENE 04:23:15 10° SE
COSMO-SKYMED 1 4.2 04:16:57 10° SE 04:20:32 30° ENE 04:22:50 18° NNE
SKYMED 2 4.4 04:18:31 10° SE 04:22:41 48° ENE 04:24:01 35° NNE
Aureole 1 Rocket 4.3 04:20:44 32° NNW 04:24:27 88° ENE 04:31:58 10° SSE
Cosmos 967 Rocket 4.4 04:24:15 64° W 04:24:57 70° WSW 04:31:21 10° SSE
Tiangong 0.4 04:27:21 21° SE 04:27:21 21° SE 04:28:41 10° ESE
Cosmos 2180 Rocket 4.4 04:23:51 27° NNW 04:27:33 81° W 04:33:53 10° S
Cosmos 1937 Rocket 4.2 04:25:55 27° N 04:28:25 50° ENE 04:33:23 10° SE
SJ-11-01 4.1 04:26:49 10° NNE 04:31:33 90° SSW 04:36:13 10° SSW
Cosmos 372 Rocket 3.8 04:33:38 65° NNW 04:34:25 88° WSW 04:39:29 10° SSE
Cosmos 2333 Rocket 3.7 04:33:57 13° N 04:38:33 33° NE 04:43:41 10° ESE
Cosmos 1606 Rocket 3.5 04:43:12 44° N 04:44:35 87° ENE 04:48:59 10° S
Cosmos 2360 Rocket 4.0 04:40:33 10° N 04:45:13 26° NE 04:49:50 10° ESE
BREEZE M DEB (TANK) 4.2 04:46:43 12° SSE 04:47:37 14° SE 04:49:09 10° E
Helios 1A Rocket 2.9 04:51:27 10° SSE 04:54:43 59° ENE 04:55:47 37° NNE
USA 234 4.4 04:49:34 10° ENE 04:55:01 29° N 04:57:47 22° NNW
SL-4 R/B 3.2 05:03:15 22° N 05:03:15 22° N 05:05:39 10° ENE
Cosmos 2219 Rocket 4.2 04:59:35 10° N 05:03:59 23° NE 05:08:22 10° E
Cosmos 2322 Rocket 3.4 05:02:04 10° NNW 05:07:26 40° ENE 05:12:44 10° SE
Cosmos 1092 Rocket 4.2 05:03:29 10° S 05:09:46 76° E 05:16:01 10° N
Meteor 2-3 Rocket 3.6 05:04:01 10° SSW 05:09:46 80° W 05:15:30 10° N
Cosmos 1726 Rocket 3.4 05:08:06 20° NNW 05:11:00 66° W 05:15:10 10° S
Cosmos 489 Rocket 4.4 05:07:49 10° SW 05:14:02 61° WNW 05:20:15 10° NNE
Nadezhda 4 Rocket 4.1 05:08:42 10° SSW 05:14:48 50° WNW 05:20:55 10° N
Cosmos 1428 Rocket 4.5 05:09:47 10° SSW 05:15:53 59° WNW 05:22:05 10° N
CZ-4 R/B 3.8 05:11:49 10° N 05:16:21 53° WNW 05:20:49 10° SSW
NOSS 2-1 (D) 3.7 05:17:47 36° WNW 05:18:58 48° SW 05:23:44 10° SSE
Cosmos 2237 4.3 05:15:45 21° NW 05:19:29 58° WSW 05:25:02 10° S
USA 59 Rocket 0.5 05:20:26 33° W 05:21:39 42° WSW 05:26:25 10° SSE
Cosmos 841 Rocket 3.7 05:17:06 10° SW 05:22:05 45° WNW 05:27:08 10° N
COSMOS 2406 3.2 05:17:04 10° SW 05:22:39 59° WNW 05:28:17 10° NNE
CZ-3 R/B 4.4 05:14:25 13° W 05:22:47 19° SW 05:29:01 10° S
Cosmos 1933 4.4 05:27:10 23° WSW 05:27:10 23° WSW 05:29:31 10° SW
NOSS 2-1 (E) 3.7 05:25:12 30° WNW 05:26:50 52° SW 05:31:36 10° SSE
NOSS 3-1 (C) 4.1 05:21:26 18° NW 05:27:18 69° WSW 05:36:15 10° SSE
Cosmos 1892 Rocket 3.6 05:24:33 10° SSW 05:28:48 52° WNW 05:33:06 10° N
SL-16 R/B 2.1 05:28:40 11° NNW 05:34:07 78° WSW 05:39:46 10° SSE
Cosmos 2082 Rocket 3.0 05:31:29 19° W 05:34:20 28° NW 05:39:09 10° N
IRS-1D 4.2 05:39:04 10° N 05:43:20 29° WNW 05:47:40 10° SW
COSMOS 2455 3.7 05:41:19 17° WNW 05:44:53 30° WSW 05:50:00 10° SSW
Cosmos 405 Rocket 2.7 05:44:16 10° S 05:47:29 66° E 05:50:45 10° NNE
Orbus 7S? 4.1 05:47:32 13° NNW 05:49:27 27° NNE 05:51:59 10° E
ATLAS 3B R/B 4.3 05:47:28 10° NNW 05:54:15 30° NNE 06:00:47 10° E
Cosmos-2242 3.2 05:51:15 10° NNW 05:55:21 49° W 05:59:23 10° SSW
COSMO-SKYMED 1 3.6 05:52:29 10° SSW 05:55:50 24° W 05:59:10 10° NW
Cosmos 1980 Rocket 4.0 05:56:02 10° W 05:56:05 10° W 05:56:28 10° W
Cosmos 2278 3.8 05:51:37 10° NNW 05:57:11 59° WSW 06:02:42 10° S
Cosmos 1437 Rocket 4.4 05:56:50 10° N 05:59:54 29° ENE 06:02:58 10° SE
Cosmos 1484 Rocket 3.1 05:59:01 10° N 06:02:06 31° WNW 06:05:07 10° SW
Tiangong 0.2 06:00:02 10° WSW 06:02:08 16° SSW 06:04:14 10° SSE
Cosmos 2058 Rocket 3.6 05:58:20 10° NNW 06:02:29 39° W 06:06:33 10° SSW
Cosmos 1602 Rocket 4.2 05:59:17 10° S 06:03:39 61° E 06:08:03 10° NNE
Okean 1 3.6 06:04:56 10° NNW 06:08:12 35° W 06:11:27 10° SSW
CORIOLIS 4.1 06:07:37 10° NNE 06:13:01 81° WNW 06:18:25 10° SSW
ATLAS 2AS CENTAUR R/B 3.5 06:07:15 10° SSW 06:14:11 59° ESE 06:20:57 10° NE
ARIANE 5 R/B 2.8 06:09:10 10° NNE 06:14:24 77° ESE 06:19:36 10° S
SL-08 ROCKET BODY 4.3 06:09:22 10° SSW 06:15:11 69° W 06:21:02 10° N
Cosmos 2285 Rocket 4.1 06:08:51 10° NNW 06:15:14 78° WSW 06:21:38 10° SSE
SL-08 R/B 4.4 06:12:21 10° SE 06:16:42 44° ENE 06:21:07 10° N
IRIDIUM 104 4.5 06:11:56 10° SSW 06:17:01 53° W 06:22:09 10° N
Cosmos 2333 Rocket 2.7 06:17:32 10° NW 06:22:58 43° WSW 06:28:19 10° S
SAR-Lupe-4 3.5 06:21:02 10° N 06:24:34 70° WNW 06:28:05 10° SSW
Cosmos 1833 4.2 06:19:21 10° SSW 06:24:59 77° WNW 06:30:42 10° NNE
SMAP 3.2 06:20:59 10° N 06:25:33 56° WNW 06:30:06 10° SSW
